Flag Weather past 2 weeks in Bad Oldesloe, Schleswig-Holstein, Germany

Now
37 °F

Passing clouds.


Feels Like: 31 °F
Forecast: 33 / 40 °F
Wind: 8 mph from Southeast

Location: Luebeck-Blankensee

Current Time: Nov 26, 2014 at 8:12:50 PM

Latest Report: Nov 26, 2014 at 7:50 PM


Visibility: N/A

Pressure: 30.15 "Hg

Humidity: 87%

Dew point: 34 °F

Location of Bad OldesloeLocation

Historic Weather in Bad Oldesloe — Graph

°F

Bad Oldesloe temperature yesterday

Maximum temperature yesterday: 39 °F (at 12:20 PM)
Minimum temperature yesterday: 34 °F (at 7:50 PM)
Average temperature yesterday: 37 °F

Past Weeks' High & Low Weather Summary

 TemperatureHumidityPressure
High54 °F (Nov 14, 2:50 PM)100% (Nov 11, 6:50 PM)30.39 "Hg (Nov 11, 6:50 PM)
Low34 °F (Nov 21, 6:50 AM)66% (Nov 20, 1:20 PM)29.59 "Hg (Nov 16, 12:50 PM)
Average45 °F92%30.03 "Hg
* Reported Nov 11 6:20 PM — Nov 26 6:50 PM, Bad Oldesloe, Weather by CustomWeather, © 2014

Note: Actual official high and low records may vary slightly from our data, if they occured in-between our weather recording intervals... More about our weather records

Advertising

Bad Oldesloe weather history for previous 24 hours

 ConditionsComfort  
Time TempWeatherWind HumidityBarometerVisibility
6:50 PM
Nov 26
37 °FPassing clouds.7 mph93%30.15 "HgN/A
6:20 PM37 °FPassing clouds.6 mph87%30.15 "HgN/A
5:50 PM37 °FPassing clouds.8 mph93%30.15 "HgN/A
5:20 PM39 °FPassing clouds.7 mph87%30.15 "HgN/A
4:50 PM39 °FPassing clouds.8 mph87%30.15 "HgN/A
4:20 PM39 °FPassing clouds.9 mph87%30.15 "HgN/A
3:50 PM39 °FScattered clouds.8 mph87%30.18 "HgN/A
3:20 PM41 °FPassing clouds.9 mph81%30.18 "HgN/A
2:50 PM43 °FPassing clouds.9 mph76%30.18 "HgN/A
2:20 PM43 °FPassing clouds.9 mph76%30.18 "HgN/A
1:50 PM43 °FPassing clouds.9 mph81%30.18 "HgN/A
1:20 PM45 °FSunny.9 mph76%30.18 "Hg10 mi
12:50 PM45 °FPassing clouds.9 mph76%30.21 "HgN/A
12:20 PM43 °FPassing clouds.8 mph81%30.21 "HgN/A
11:50 AM43 °FPassing clouds.9 mph81%30.21 "HgN/A
11:20 AM43 °FPassing clouds.9 mph76%30.24 "HgN/A
10:20 AM41 °FScattered clouds.8 mph87%30.24 "HgN/A
9:50 AM41 °FPassing clouds.7 mph87%30.24 "HgN/A
9:20 AM39 °FPassing clouds.6 mph93%30.24 "HgN/A
8:50 AM39 °FScattered clouds.7 mph93%30.24 "HgN/A
8:20 AM39 °FPartly sunny.6 mph93%30.24 "HgN/A
7:50 AM39 °FPassing clouds.6 mph100%30.24 "HgN/A
7:20 AM39 °FPassing clouds.3 mph100%30.24 "HgN/A
6:50 AM37 °FPassing clouds.2 mph100%30.24 "HgN/A
9:50 PM
Nov 25
34 °FFog.2 mph100%30.33 "Hg0 mi
9:20 PM34 °FFog.3 mph100%30.33 "Hg0 mi
8:50 PM36 °FFog.3 mph100%30.33 "Hg0 mi
8:20 PM36 °FFog.2 mph100%30.33 "Hg0 mi
Weather by CustomWeather, © 2014

See weather overviewHow to use our weather pages